Monarch Pass, CO

9:38 AM MST on November 20, 2017 (GMT -0700)
Monarch Pass

Weather History for KMYP - February, 2013

Change the Weather History Date:

Monday, February 11, 2013

  Actual Average (KALS) Record (KALS)
Temperature  
Mean Temperature 3 °F -  
Max Temperature 6 °F 39 °F 64 °F (1951)
Min Temperature 0 °F 2 °F -24 °F (1939)
Degree Days  
Heating Degree Days 62    
Moisture  
Dew Point 0 °F    
Average Humidity 84    
Maximum Humidity 92    
Minimum Humidity 78    
Precipitation  
Precipitation 0.00 in - - ()
Sea Level Pressure  
Sea Level Pressure 29.87 in    
Wind  
Wind Speed - (North)    
Max Wind Speed -    
Max Gust Speed -    
Averages and records for this station are not official NWS values.
T = Trace of Precipitation, MM = Missing Value Source: NWS Daily Summary

Daily Weather History Graph

Daily Weather History Graph

Search for Another Location

Airport or City:

Trip Planner

Search our weather history database for the weather conditions in past years. The results will help you decide how hot, cold, wet, or windy it might be!

Date:

Astronomy

Feb. 11, 2013 Rise Set
Actual Time 6:59 AM MST 5:39 PM MST
Civil Twilight 6:32 AM MST 6:06 PM MST
Nautical Twilight 6:01 AM MST 6:37 PM MST
Astronomical Twilight 5:30 AM MST 7:08 PM MST
Moon 7:27 AM MST (2/11) 7:36 PM MST (2/11)
Length of Visible Light 11h 34m
Length of Day
10h 39m
Waxing Crescent, 3% of the Moon is Illuminated
Feb 11
Waxing Crescent
Feb 17
First Quarter
Feb 25
Full
Mar 4
Last Quarter
Mar 11
New

Hourly Weather History & Observations

Time (MST) Temp. Dew Point Humidity Pressure Visibility Wind Dir Wind Speed Gust Speed Precip Events Conditions
12:18 AM 5.0 °F 1.4 °F 85% 29.87 in - North - - N/A   Unknown
12:38 AM 5.0 °F 1.4 °F 85% 29.86 in - North - - N/A   Unknown
12:58 AM 5.0 °F 1.4 °F 85% 29.86 in - North - - N/A   Unknown
1:18 AM 3.2 °F -0.4 °F 85% 29.86 in - North - - N/A   Unknown
1:38 AM 3.2 °F -0.4 °F 85% 29.86 in - North - - N/A   Unknown
1:58 AM 3.2 °F -0.4 °F 85% 29.86 in - North - - N/A   Unknown
2:18 AM 3.2 °F -0.4 °F 85% 29.86 in - North - - N/A   Unknown
2:38 AM 3.2 °F -0.4 °F 85% 29.86 in - North - - N/A   Overcast
2:58 AM 3.2 °F -0.4 °F 85% 29.85 in - North - - N/A   Overcast
3:18 AM 1.4 °F -2.2 °F 85% 29.84 in - North - - N/A   Overcast
3:38 AM 1.4 °F -2.2 °F 85% 29.84 in - North - - N/A   Overcast
3:58 AM 1.4 °F -4.0 °F 78% 29.84 in - North - - N/A   Overcast
4:18 AM 3.2 °F -0.4 °F 85% 29.83 in - North - - N/A   Unknown
4:58 AM 1.4 °F -2.2 °F 85% 29.83 in - North - - N/A   Unknown
5:18 AM 1.4 °F -2.2 °F 85% 29.83 in - North - - N/A   Unknown
5:38 AM 1.4 °F -2.2 °F 85% 29.83 in - North - - N/A   Unknown
5:58 AM 3.2 °F -2.2 °F 78% 29.83 in - North - - N/A   Overcast
6:18 AM 3.2 °F -0.4 °F 85% 29.84 in - North - - N/A   Unknown
6:38 AM 3.2 °F -0.4 °F 85% 29.84 in - North - - N/A   Unknown
6:58 AM 5.0 °F 1.4 °F 85% 29.84 in - North - - N/A   Unknown
7:18 AM 5.0 °F 1.4 °F 85% 29.84 in - North - - N/A   Unknown
7:38 AM 3.2 °F -2.2 °F 78% 29.84 in - North - - N/A   Overcast
7:58 AM -0.4 °F -4.0 °F 85% 29.84 in - North - - N/A   Overcast
8:18 AM 3.2 °F -0.4 °F 85% 29.85 in - North - - N/A   Overcast
8:38 AM 1.4 °F -2.2 °F 85% 29.85 in - North - - N/A   Overcast
8:58 AM 5.0 °F 1.4 °F 85% 29.86 in - North - - N/A   Overcast
9:18 AM 5.0 °F 1.4 °F 85% 29.86 in - North - - N/A   Overcast
9:38 AM 5.0 °F 1.4 °F 85% 29.86 in - North - - N/A   Unknown
9:58 AM 5.0 °F 3.2 °F 92% 29.86 in - North - - N/A   Overcast
10:18 AM 5.0 °F 3.2 °F 92% 29.86 in - North - - N/A   Overcast
10:38 AM 6.8 °F 3.2 °F 85% 29.86 in - North - - N/A   Overcast
10:58 AM 6.8 °F 3.2 °F 85% 29.86 in - North - - N/A   Overcast
11:18 AM 5.0 °F 3.2 °F 92% 29.86 in - North - - N/A   Unknown
11:38 AM 6.8 °F 3.2 °F 85% 29.86 in - North - - N/A   Overcast
11:58 AM 5.0 °F 3.2 °F 92% 29.86 in - North - - N/A   Overcast
12:18 PM 5.0 °F 3.2 °F 92% 29.85 in - North - - N/A   Overcast
12:38 PM 5.0 °F 1.4 °F 85% 29.84 in - North - - N/A   Overcast
12:58 PM 6.8 °F 3.2 °F 85% 29.84 in - North - - N/A   Overcast
1:18 PM 6.8 °F 3.2 °F 85% 29.84 in - North - - N/A   Unknown
1:38 PM 5.0 °F 1.4 °F 85% 29.83 in - North - - N/A   Overcast
1:58 PM 5.0 °F 1.4 °F 85% 29.83 in - North - - N/A   Unknown
2:18 PM 5.0 °F 1.4 °F 85% 29.83 in - North - - N/A   Unknown
2:38 PM 5.0 °F -0.4 °F 78% 29.84 in - North - - N/A   Overcast
2:58 PM 3.2 °F -0.4 °F 85% 29.84 in - North - - N/A   Unknown
3:58 PM 5.0 °F 1.4 °F 85% 29.86 in - North - - N/A   Unknown
4:18 PM 3.2 °F -0.4 °F 85% 29.86 in - North - - N/A   Unknown
4:38 PM 3.2 °F -0.4 °F 85% 29.87 in - North - - N/A   Unknown
4:58 PM 3.2 °F -0.4 °F 85% 29.87 in - North - - N/A   Overcast
5:18 PM 3.2 °F -0.4 °F 85% 29.88 in - North - - N/A   Overcast
5:38 PM 3.2 °F -0.4 °F 85% 29.88 in - North - - N/A   Overcast
5:58 PM 3.2 °F -0.4 °F 85% 29.89 in - North - - N/A   Overcast
6:18 PM 3.2 °F -0.4 °F 85% 29.90 in - North - - N/A   Overcast
6:38 PM 3.2 °F -0.4 °F 85% 29.91 in - North - - N/A   Overcast
6:58 PM 3.2 °F -0.4 °F 85% 29.91 in - North - - N/A   Overcast
7:18 PM 3.2 °F -0.4 °F 85% 29.91 in - North - - N/A   Overcast
7:38 PM 3.2 °F -0.4 °F 85% 29.91 in - North - - N/A   Overcast
7:58 PM 3.2 °F -0.4 °F 85% 29.92 in - North - - N/A   Overcast
8:18 PM 3.2 °F -0.4 °F 85% 29.92 in - North - - N/A   Overcast
8:38 PM 3.2 °F -2.2 °F 78% 29.92 in - North - - N/A   Overcast
8:58 PM 3.2 °F -0.4 °F 85% 29.92 in - North - - N/A   Overcast
9:18 PM 1.4 °F -2.2 °F 85% 29.92 in - North - - N/A   Overcast
9:38 PM 1.4 °F -4.0 °F 78% 29.92 in - North - - N/A   Overcast
9:58 PM 1.4 °F -4.0 °F 78% 29.92 in - North - - N/A   Overcast
10:18 PM 1.4 °F -4.0 °F 78% 29.92 in - North - - N/A   Overcast
10:38 PM 1.4 °F -4.0 °F 78% 29.92 in - North - - N/A   Overcast
10:58 PM 1.4 °F -4.0 °F 78% 29.92 in - North - - N/A   Overcast
11:18 PM 1.4 °F -4.0 °F 78% 29.92 in - North - - N/A   Overcast
11:38 PM 1.4 °F -4.0 °F 78% 29.92 in - North - - N/A   Overcast
11:58 PM 1.4 °F -4.0 °F 78% 29.93 in - North - - N/A   Overcast